Вернуться в каталог

STARLINK-37009

АктивенСвязьSSO
NORAD 68208·PAYLOAD·🇺🇸 United States

Запущен Mar 17, 2026 с Vandenberg Space Force Base

Loading…

Ближайшие Пролёты (ближайшие 24 часа)

TLE

СвежийSource: CelesTrak SupGP

Эпоха: Sep 14, 2026, 23:20 UTC

1 68208C 26053B   26257.97270833  .00068548  00000+0  21290-2 0  2574
2 68208  97.2846 131.7552 0001911  93.8170 191.3575 15.33387363    10

Отслеживайте STARLINK-37009 в реальном времени с AllMySat

Download on the App Store